Regional Weather Roundup
Issued by NWS Midland/Odessa, TX

Skip options and go directly to product.
Home | Oldest Version | Next Version | Current Version | All | Text Only | Save Text | Print | Product List | Glossary On

Skip product version selection by date and time.   
654
ASUS44 KMAF 231702
RWRMAF
MIDLAND AREA WEATHER ROUNDUP
NATIONAL WEATHER SERVICE MIDLAND TX
1200 PM CDT WED APR 23 2014

...IN SOUTHWEST TEXAS AND SOUTHEAST NEW MEXICO...

CITY           SKY/WX    TMP DP  RH WIND       PRES   REMARKS
ALPINE         MOSUNNY   79  39  23 SW16G26   30.00S
ANDREWS        FAIR      79  52  38 SW18G30   29.84F
ARTESIA        PTSUNNY   77  28  16 SW20G25   29.83F
BIG SPRING     MOSUNNY   80  57  45 S23G31    29.87F
CARLSBAD       CLOUDY    81  24  12 W21G29    29.83F
DRYDEN           N/A     84  57  39 SE8       29.84F
FORT STOCKTON  MOSUNNY   87  40  19 W18G29    29.84F
GUAD PASS      MOSUNNY   73  28  18 W28       29.97F
HOBBS          PTSUNNY   79  45  29 SW16G22   29.86F
MARFA          MOSUNNY   79  34  19 SW13      29.99F
MIDLAND AIRPK  SUNNY     82  55  38 S17G26    29.84F
MIDLAND INTL   MOSUNNY   83  54  36 S17G29    29.84F
ODESSA           N/A    N/A N/A N/A MISG      29.85F
PECOS          PTSUNNY   81  53  37 S3        29.82F
PRESIDIO       FAIR      85  27  12 S8        29.87F
SEMINOLE       MOSUNNY   78  49  35 S18G24    29.85F
SNYDER         MOSUNNY   79  59  50 S29G35    29.85F
WINK           PTSUNNY   83  49  30 S14G22    29.81F
$$
...OTHER STATIONS IN TEXAS...

CITY           SKY/WX    TMP DP  RH WIND       PRES   REMARKS
ABILENE        MOSUNNY   81  59  47 S23G32    29.85F
AMARILLO       MOSUNNY   77  51  40 S33G44    29.78F
AUSTIN         MOSUNNY   81  65  58 S12       29.91F
BROWNSVILLE    MOSUNNY   83  66  56 S17       29.91F
CORPUS CHRISTI MOSUNNY   84  66  54 S13       29.92F
DALLAS FTW     MOSUNNY   81  62  52 S14       29.90F
DEL RIO        SUNNY     84  65  52 SE17G26   29.84F
EL PASO        MOSUNNY   76  25  15 W18G24    29.90F
HOUSTON INT    PTSUNNY   77  66  68 S10G20    29.97S
LUBBOCK        CLOUDY    77  54  44 S24G32    29.82F
SAN ANGELO     PTSUNNY   83  58  42 S24G32    29.85F
SAN ANTONIO    MOSUNNY   84  64  50 SE15      29.91F
WACO           SUNNY     82  63  52 S16       29.91F
WICHITA FALLS  NOT AVBL
$$
...OTHER LOCATIONS IN NEW MEXICO...

CITY           SKY/WX    TMP DP  RH WIND       PRES   REMARKS
ALAMAGORDO     MOSUNNY   75  25  15 SW14G25   29.91F
ALBUQUERQUE    MOSUNNY   68  23  18 SW14G25   29.88F
CANNON AFB     CLOUDY    76  38  25 SW24G31   29.82S
CLOVIS         PTSUNNY   77  46  33 SW23G29   29.84F
HOLLOMAN AFB   MOSUNNY   76  25  15 S12G20    29.89S
ROSWELL        MOSUNNY   83  24  11 W17G28    29.80F
RUIDOSO        SUNNY     64  19  17 SW18G33   29.98F
SANTA FE       SUNNY     65  22  19 W17G26    29.89F
TRUTH OR CONSE SUNNY     73  17  12 SW14      29.87F
TUCUMCARI      CLOUDY    75  43  31 SW17      29.76F
$$

USA.gov is the U.S. government's official web portal to all federal, state and local government web resources and services.